Location: Newark
(45.8667°N, 9.7333°E)
Time: 17:53:22
(UTC+00:00)

Vanguard 3 - Pass Details

Date: 01 February 2020
Orbit: 508 x 3263 km, 33.3° (Epoch: 21 February)

Event Time Altitude Azimuth Distance (km) Brightness Sun altitude
Rises 20:26:35 0° 277° (W) 7,232 12.8 -41.6°
Reaches altitude 10° 20:32:21 10° 269° (W) 6,173 12.2 -42.6°
Maximum altitude 20:47:32 31° 218° (SW) 4,059 10.6 -45.0°
Enters shadow 20:51:11 29° 197° (SSW) 3,962 10.4 -45.6°
Drops below altitude 10° 20:58:59 10° 162° (SSE) 4,607 - -46.8°
Sets 21:02:34 0° 152° (SSE) 5,231 - -47.3°
